This demonstration page uses our WeatherBlox Daily Observations layout. Learn more.

Left ArrowRight Arrow

38.20091, -84.87328

Hourly Observations for June 8, 2021

Temp ( °F °C ) Dew Point ( °F °C ) Humidity (%) Winds ( mph kmh ) Pressure ( in mb ) Visibility ( mi km ) Precip ( " mm )
12:53 am 00:53 Clear 70 21.1 67 19.4 90 90 Calm 30.05 1018 10 16 0.00 0.00
1:53 am 01:53 Clear 71 21.7 68 20 90 90 SE 3 6 30.04 1017 10 16 0.00 0.00
2:53 am 02:53 Clear 68 20 66 18.9 93 93 Calm 30.02 1017 10 16 0.00 0.00
3:53 am 03:53 Mostly Clear 68 20 66 18.9 93 93 Calm 30.03 1017 10 16 0.00 0.00
4:53 am 04:53 Clear 70 21.1 67 19.4 90 90 SE 3 6 30.02 1017 10 16 0.00 0.00
5:17 am 05:17 Clear with Mist and Fog 68 20 66 18.9 93 93 Calm 30.03 1017 2 2 0.00 0.00
5:21 am 05:21 Clear with Mist and Fog 68 20 66 18.9 93 93 Calm 30.03 1017 1 1 0.00 0.00
5:33 am 05:33 Clear with Mist and Fog 69 20.6 66 18.9 90 90 S 3 6 30.03 1017 2 2 0.00 0.00
5:35 am 05:35 Mostly Clear with Mist and Fog 69 20.6 66 18.9 90 90 S 3 6 30.03 1017 5 8 0.00 0.00
5:53 am 05:53 Mostly Clear 69 20.6 67 19.4 93 93 Calm 30.04 1017 9 14 0.00 0.00
6:53 am 06:53 Sunny 71 21.7 68 20 90 90 S 5 7 30.06 1018 10 16 0.00 0.00
7:53 am 07:53 Sunny 73 22.8 69 20.6 87 87 S 3 6 30.08 1019 10 16 0.00 0.00
8:53 am 08:53 Sunny 76 24.4 70 21.1 82 82 S 10 17 30.09 1019 10 16 0.00 0.00
9:53 am 09:53 Partly Cloudy 78 25.6 70 21.1 76 76 S 9 15 30.08 1019 10 16 0.00 0.00
10:53 am 10:53 Sunny 81 27.2 70 21.1 69 69 SW 7 11 30.07 1018 10 16 0.00 0.00
11:53 am 11:53 Mostly Sunny 84 28.9 71 21.7 65 65 S 7 11 30.08 1019 10 16 0.00 0.00
12:53 pm 12:53 Mostly Sunny 84 28.9 70 21.1 63 63 WSW 3 6 30.09 1019 10 16 0.00 0.00
1:18 pm 13:18 Mostly Cloudy with Thunderstorms 83 28.3 69 20.6 63 63 Calm 30.06 1018 10 16 0.00 0.00
1:53 pm 13:53 Cloudy with Strong Thunderstorms 73 22.8 66 18.9 79 79 S 8 13 30.10 1019 1 1 0.80 20.32
2:03 pm 14:03 Cloudy with Strong Thunderstorms 71 21.7 65 18.3 81 81 S 10 17 30.11 1020 0 0 0.45 11.43
2:18 pm 14:18 Cloudy with Thunderstorms 71 21.7 68 20 90 90 ENE 8 13 30.09 1019 1 2 0.82 20.83
2:20 pm 14:20 Cloudy with Nearby Thunderstorms 72 22.2 68 20 87 87 VRB 6 9 30.09 1019 2 2 0.83 21.08
2:23 pm 14:23 Cloudy with Nearby Thunderstorms 72 22.2 68 20 87 87 NNE 8 13 30.09 1019 4 6 0.84 21.34
2:29 pm 14:29 Cloudy with Light Rain 71 21.7 67 19.4 87 87 N 7 11 30.09 1019 5 8 0.84 21.34
2:53 pm 14:53 Cloudy 74 23.3 68 20 82 82 WNW 6 9 30.08 1019 10 16 0.84 21.34
3:53 pm 15:53 Partly Cloudy with Rain 74 23.3 68 20 82 82 E 5 7 30.07 1018 6 10 0.02 0.51
4:53 pm 16:53 Cloudy with Light Rain 74 23.3 69 20.6 85 85 VRB 3 6 30.07 1018 10 16 0.02 0.51
4:57 pm 16:57 Cloudy with Light Rain 74 23.3 70 21.1 88 88 Calm 30.06 1018 3 4 0.03 0.76
5:01 pm 17:01 Cloudy with Heavy Rain 74 23.3 70 21.1 88 88 VRB 3 6 30.07 1018 2 2 0.04 1.02
5:07 pm 17:07 Cloudy with Light Rain 74 23.3 70 21.1 88 88 E 7 11 30.06 1018 3 5 0.04 1.02
5:18 pm 17:18 Mostly Cloudy with Light Rain 74 23.3 70 21.1 88 88 E 7 11 30.06 1018 10 16 0.04 1.02
5:26 pm 17:26 Mostly Cloudy 74 23.3 70 21.1 88 88 E 6 9 30.07 1018 10 16 0.04 1.02
5:53 pm 17:53 Partly Cloudy 74 23.3 69 20.6 85 85 E 6 9 30.07 1018 10 16 0.04 1.02
6:53 pm 18:53 Mostly Sunny 74 23.3 70 21.1 88 88 SE 3 6 30.05 1018 10 16 0.00 0.00
7:13 pm 19:13 Mostly Sunny 75 23.9 71 21.7 88 88 Calm 30.04 1017 10 16 0.00 0.00
7:53 pm 19:53 Sunny 74 23.3 70 21.1 88 88 SSE 5 7 30.04 1017 10 16 0.00 0.00
8:53 pm 20:53 Sunny 74 23.3 70 21.1 88 88 SE 3 6 30.04 1017 10 16 0.00 0.00
9:53 pm 21:53 Clear 73 22.8 70 21.1 90 90 SE 3 6 30.04 1017 10 16 0.00 0.00
10:53 pm 22:53 Mostly Cloudy 73 22.8 70 21.1 90 90 ESE 3 6 30.06 1018 10 16 0.00 0.00
11:53 pm 23:53 Mostly Cloudy with Light Rain 73 22.8 70 21.1 90 90 Calm 30.06 1018 10 16 0.02 0.51

Powered by AerisWeather